Showing default

IONOSFERA-M 02, 61736

Orbit data source: Space-Track

IONOSFERA-M 02, 61736 is a payload satellite owned by VNIIEM (CIS) in SSO that was launched on Mon, 04 Nov 2024 UTC via a SOYUZ-2-1B launch vehicle from the Vostochny Cosmodrome (VOSTO). Payload-class satellites include a variety of spacecraft equipped with specific instruments for various scientific and technological missions. These include communications satellites like Starlink; space stations such as the ISS; scientific satellites like the Hubble; Earth observation satellites from companies like Planet Labs, Umbra, and HawkEye 360; GPS; miniature CubeSats for education and research; and military/defense satellites.

Loading next visibility...
Identifier
61736, 2024-199B
Orbit
SSO
Country
Flag of CISCIS
Related business
Manufacturer
VNIIEM
Mission
Operational Civil Science
Bus & Motor
IONOSFERA-M, Unknown motor
Mass
430 kg wet, 430 kg dry
Launch date (UTC)
2024-11-04 (1 year ago)
Launch vehicle
SOYUZ-2-1B
Launch site
Vostochny Cosmodrome (VOSTO)
Object type
Payload
Rocket body
Debris
Shape & HBR
Box + 1 Ant, 5.0 m
Radar Cross Section
2.359 m², Large (>1 m²)

Expand to show TLE details & history
Last TLE update: 4 hours ago

TLE from 4 hours ago
0 IONOSFERA-M 02
1 61736U 24199B   25302.55560194  .00000075  00000-0  53280-4 0  9999
2 61736  98.7450 172.6470 0000243  50.6867 309.4332 14.22701048 98039
Epoch: 2025-10-29T13:20Z
TLE epoch observation values (Epoch: 2025-10-29T13:20:04.007Z)
Latitude
-0.00007°
Longitude
-65.49674°
Altitude
819.038 km
Speed
7.444 km/s
True Right ascension
11h 30m 35s
True Declination
0° 00' 00"
Sunlit
Object was in daylight at epoch
Visualization orbit readout
Latitude
Unknown
Longitude
Unknown
Altitude
Unknown
Speed
Unknown
Apparent Right ascension
Unknown
Apparent Declination
Unknown
Sunlit
N/A
Visualization observer readout
Local Sidereal Time
13:05:14
Azimuth
Unknown
Elevation
Unknown
Doppler factor
Unknown
Orbital elements
Apogee altitude
813.564 km
Perigee altitude
813.214 km
Semi-major axis
7,191.526 km
Eccentricity
0.00002
Inclination
98.745°
RAAN
172.647°
Arg. of periapsis
50.6867°
True anomaly
309.43105°
Mean anomaly
309.4332°
Eccentric anomaly
309.43212°
Mean motion
3.55887 °/min
Orbital period
101.16 mins
BSTAR
0.00005328
Loading maneuver chart data...
Computing Atmospheric mass density...
Loading historical data...
Loading historical data...
Loading historical data...
Loading historical data...
Loading historical data...
Loading historical data...
Loading historical data...

Documentation

Showing up to 5 results
|